Flag for U.S.A. Weather past 2 weeks in Olympia, Washington, U.S.A.

Now
54 °F

Passing clouds.


Feels Like: 54 °F
Forecast: 44 / 67 °F
Wind: No wind

Location: Olympia Airport

Current Time: Oct 1, 2014 at 11:42:19 PM

Latest Report: Oct 1, 2014 at 10:54 PM


Visibility: 10 mi

Pressure: 30.20 "Hg

Humidity: 74%

Dew point: 46 °F

Location of OlympiaLocation

Historic Weather in Olympia — Graph

°F

Olympia temperature yesterday

Maximum temperature yesterday: 67 °F (at 2:54 PM)
Minimum temperature yesterday: 51 °F (at 11:54 PM)
Average temperature yesterday: 58 °F

Past Weeks' High & Low Weather Summary

 TemperatureHumidityPressure
High78 °F (Sep 21, 2:54 PM)100% (Sep 17, 6:59 AM)30.24 "Hg (Sep 17, 6:59 AM)
Low42 °F (Oct 1, 6:54 AM)45% (Sep 21, 2:54 PM)29.69 "Hg (Sep 23, 10:54 PM)
Average60 °F83%29.95 "Hg
* Reported Sep 16 9:54 PM — Oct 1 9:54 PM, Olympia, Weather by CustomWeather, © 2014

Note: Actual official high and low records may vary slightly from our data, if they occured in-between our weather recording intervals... More about our weather records

Advertising

Olympia weather history for previous 24 hours

 ConditionsComfort  
Time TempWeatherWind HumidityBarometerVisibility
9:54 PM
Oct 1
53 °FClear.No wind77%30.20 "Hg10 mi
8:54 PM53 °FClear.7 mph77%30.19 "Hg10 mi
7:54 PM56 °FClear.6 mph67%30.18 "Hg9 mi
6:54 PM58 °FScattered clouds.5 mph62%30.18 "Hg10 mi
5:54 PM63 °FScattered clouds.7 mph54%30.18 "Hg10 mi
4:54 PM64 °FPartly sunny.7 mph52%30.17 "Hg10 mi
3:54 PM64 °FPartly sunny.10 mph49%30.17 "Hg10 mi
2:54 PM64 °FPartly sunny.5 mph52%30.18 "Hg10 mi
1:54 PM63 °FPartly sunny.No wind56%30.20 "Hg10 mi
12:54 PM62 °FScattered clouds.No wind60%30.21 "Hg10 mi
11:54 AM59 °FScattered clouds.No wind69%30.22 "Hg10 mi
10:54 AM56 °FPartly sunny.No wind77%30.23 "Hg10 mi
9:54 AM50 °FScattered clouds.No wind96%30.24 "Hg10 mi
8:54 AM46 °FFog.5 mph100%30.23 "Hg0 mi
7:54 AM42 °FFog.No wind100%30.22 "Hg2 mi
6:54 AM42 °FFog.No wind96%30.22 "Hg0 mi
5:54 AM43 °FFog.No wind100%30.21 "Hg0 mi
5:02 AM44 °FFog.No wind96%30.20 "Hg1 mi
4:54 AM43 °FFog.No wind100%30.20 "Hg0 mi
3:54 AM47 °FFog.No wind97%30.19 "Hg2 mi
2:54 AM47 °FPartly cloudy.No wind97%30.20 "Hg7 mi
1:54 AM49 °FFog.No wind93%30.19 "Hg6 mi
12:54 AM51 °FPassing clouds.No wind89%30.18 "Hg9 mi
11:54 PM
Sep 30
51 °FPassing clouds.No wind89%30.17 "Hg9 mi
Weather by CustomWeather, © 2014

See weather overviewHow to use our weather pages